Location: Killam
(52.7910°N, 111.8608°W)
Time: 22:06:48
(UTC+00:00)

SR - Pass Details

Date: 25 February 2026
Orbit: 572 x 849 km, 66.7° (Epoch: 11 March)

Event Time Altitude Azimuth Distance (km) Brightness Sun altitude
Exits shadow 11:36:07 42° 354° (N) 896 ? -25.6°
Drops below altitude 10° 11:39:45 10° 34° (NNE) 2,070 ? -25.1°
Sets 11:42:14 0° 40° (NE) 3,032 ? -24.8°
